Time,TemperatureF,DewpointF,PressureIn,WindDirection,WindDirectionDegrees,WindSpeedMPH,WindSpeedGustMPH,Humidity,HourlyPrecipIn,Conditions,Clouds,dailyrainin,SoftwareType,DateUTC
2013-06-08 00:02:00,53.2,50.3,30.13,SW,225,0.0,1.0,90,0.00,,,0.00,WUHU216DAVISVP2,2013-06-08 07:02:00,
2013-06-08 00:07:00,53.2,50.3,30.13,WSW,238,0.0,0.0,90,0.00,,,0.00,WUHU216DAVISVP2,2013-06-08 07:07:00,
2013-06-08 00:12:00,53.1,50.2,30.14,WSW,238,0.0,0.0,90,0.00,,,0.00,WUHU216DAVISVP2,2013-06-08 07:12:00,
2013-06-08 00:17:00,53.0,50.1,30.14,NNE,24,0.0,1.0,90,0.00,,,0.00,WUHU216DAVISVP2,2013-06-08 07:17:00,
2013-06-08 00:22:00,53.0,50.1,30.14,NNE,23,0.0,1.0,90,0.00,,,0.00,WUHU216DAVISVP2,2013-06-08 07:22:00,
2013-06-08 00:27:00,53.0,50.1,30.14,NE,40,0.0,2.0,90,0.00,,,0.00,WUHU216DAVISVP2,2013-06-08 07:27:00,
2013-06-08 00:32:00,53.1,49.9,30.14,NE,39,0.0,2.0,89,0.00,,,0.00,WUHU216DAVISVP2,2013-06-08 07:32:00,
2013-06-08 00:37:00,53.1,49.9,30.14,NE,39,0.0,1.0,89,0.00,,,0.00,WUHU216DAVISVP2,2013-06-08 07:37:00,
2013-06-08 00:42:00,53.2,50.3,30.14,NE,39,0.0,0.0,90,0.00,,,0.00,WUHU216DAVISVP2,2013-06-08 07:42:00,
2013-06-08 00:47:00,53.2,50.0,30.13,NE,36,1.0,1.0,89,0.00,,,0.00,WUHU216DAVISVP2,2013-06-08 07:47:00,
2013-06-08 00:52:00,53.1,49.6,30.13,North,9,0.0,2.0,88,0.00,,,0.00,WUHU216DAVISVP2,2013-06-08 07:52:00,
2013-06-08 00:57:00,53.0,49.5,30.13,North,9,0.0,2.0,88,0.00,,,0.00,WUHU216DAVISVP2,2013-06-08 07:57:00,
2013-06-08 01:02:00,53.0,49.8,30.13,North,9,0.0,0.0,89,0.00,,,0.00,WUHU216DAVISVP2,2013-06-08 08:02:00,
2013-06-08 01:07:00,52.9,49.7,30.13,North,9,0.0,0.0,89,0.00,,,0.00,WUHU216DAVISVP2,2013-06-08 08:07:00,
2013-06-08 01:12:00,52.9,49.7,30.13,North,9,0.0,0.0,89,0.00,,,0.00,WUHU216DAVISVP2,2013-06-08 08:12:00,
2013-06-08 01:17:00,52.8,49.6,30.13,North,9,0.0,0.0,89,0.00,,,0.00,WUHU216DAVISVP2,2013-06-08 08:17:00,
2013-06-08 01:22:00,52.7,49.5,30.13,North,9,0.0,0.0,89,0.00,,,0.00,WUHU216DAVISVP2,2013-06-08 08:22:00,
2013-06-08 01:27:00,52.6,49.4,30.13,North,9,0.0,0.0,89,0.00,,,0.00,WUHU216DAVISVP2,2013-06-08 08:27:00,
2013-06-08 01:32:00,52.5,49.3,30.13,North,9,0.0,0.0,89,0.00,,,0.00,WUHU216DAVISVP2,2013-06-08 08:32:00,
2013-06-08 01:37:00,52.4,49.2,30.13,North,350,2.0,2.0,89,0.00,,,0.00,WUHU216DAVISVP2,2013-06-08 08:37:00,
2013-06-08 01:42:00,52.3,49.1,30.13,NNW,335,0.0,2.0,89,0.00,,,0.00,WUHU216DAVISVP2,2013-06-08 08:42:00,
2013-06-08 01:47:00,52.0,48.8,30.14,North,355,0.0,0.0,89,0.00,,,0.00,WUHU216DAVISVP2,2013-06-08 08:47:00,
2013-06-08 01:52:00,51.9,48.8,30.14,North,355,0.0,0.0,89,0.00,,,0.00,WUHU216DAVISVP2,2013-06-08 08:52:00,
2013-06-08 01:57:00,51.7,48.6,30.14,NNW,329,0.0,1.0,89,0.00,,,0.00,WUHU216DAVISVP2,2013-06-08 08:57:00,
2013-06-08 02:02:00,51.5,48.6,30.14,NNW,337,0.0,1.0,90,0.00,,,0.00,WUHU216DAVISVP2,2013-06-08 09:02:00,
2013-06-08 02:07:00,51.3,48.4,30.14,NNW,337,0.0,1.0,90,0.00,,,0.00,WUHU216DAVISVP2,2013-06-08 09:07:00,
2013-06-08 02:12:00,51.2,48.3,30.14,NNW,337,0.0,1.0,90,0.00,,,0.00,WUHU216DAVISVP2,2013-06-08 09:12:00,
2013-06-08 02:17:00,51.0,48.1,30.13,NNW,337,0.0,0.0,90,0.00,,,0.00,WUHU216DAVISVP2,2013-06-08 09:17:00,
2013-06-08 02:22:00,50.8,47.9,30.13,NNW,337,0.0,0.0,90,0.00,,,0.00,WUHU216DAVISVP2,2013-06-08 09:22:00,
2013-06-08 02:27:00,50.5,47.9,30.13,NNW,337,0.0,0.0,91,0.00,,,0.00,WUHU216DAVISVP2,2013-06-08 09:27:00,
2013-06-08 02:32:00,50.3,47.7,30.13,NNW,337,0.0,0.0,91,0.00,,,0.00,WUHU216DAVISVP2,2013-06-08 09:32:00,
2013-06-08 02:37:00,50.1,47.8,30.13,NNW,337,0.0,0.0,92,0.00,,,0.00,WUHU216DAVISVP2,2013-06-08 09:37:00,
2013-06-08 02:42:00,50.0,47.7,30.13,NNW,337,0.0,0.0,92,0.00,,,0.00,WUHU216DAVISVP2,2013-06-08 09:42:00,
2013-06-08 02:47:00,49.8,47.5,30.13,NNW,337,0.0,0.0,92,0.00,,,0.00,WUHU216DAVISVP2,2013-06-08 09:47:00,
2013-06-08 02:52:00,49.7,47.4,30.13,NNW,337,0.0,0.0,92,0.00,,,0.00,WUHU216DAVISVP2,2013-06-08 09:52:00,
2013-06-08 02:57:00,49.6,47.6,30.14,NNW,337,0.0,0.0,93,0.00,,,0.00,WUHU216DAVISVP2,2013-06-08 09:57:00,
2013-06-08 03:02:00,49.5,47.5,30.13,NNW,337,0.0,0.0,93,0.00,,,0.00,WUHU216DAVISVP2,2013-06-08 10:02:00,
2013-06-08 03:07:00,49.3,47.3,30.14,NNW,337,0.0,0.0,93,0.00,,,0.00,WUHU216DAVISVP2,2013-06-08 10:07:00,
2013-06-08 03:12:00,49.2,47.2,30.14,NNW,337,0.0,0.0,93,0.00,,,0.00,WUHU216DAVISVP2,2013-06-08 10:12:00,
2013-06-08 03:17:00,49.1,47.1,30.14,NNW,337,0.0,0.0,93,0.00,,,0.00,WUHU216DAVISVP2,2013-06-08 10:17:00,
2013-06-08 03:22:00,49.1,47.4,30.14,NNW,337,0.0,0.0,94,0.00,,,0.00,WUHU216DAVISVP2,2013-06-08 10:22:00,
2013-06-08 03:27:00,49.1,47.4,30.13,NNW,337,0.0,0.0,94,0.00,,,0.00,WUHU216DAVISVP2,2013-06-08 10:27:00,
2013-06-08 03:32:00,49.2,47.5,30.13,NNW,337,0.0,0.0,94,0.00,,,0.00,WUHU216DAVISVP2,2013-06-08 10:32:00,
2013-06-08 03:37:00,49.2,47.5,30.13,NNW,337,0.0,0.0,94,0.00,,,0.00,WUHU216DAVISVP2,2013-06-08 10:37:00,
2013-06-08 03:42:00,49.3,47.6,30.13,NNW,335,0.0,0.0,94,0.00,,,0.00,WUHU216DAVISVP2,2013-06-08 10:42:00,
2013-06-08 03:47:00,49.4,47.4,30.13,NNW,335,0.0,0.0,93,0.00,,,0.00,WUHU216DAVISVP2,2013-06-08 10:47:00,
2013-06-08 03:52:00,49.4,47.4,30.14,NNW,335,0.0,0.0,93,0.00,,,0.00,WUHU216DAVISVP2,2013-06-08 10:52:00,
2013-06-08 03:57:00,49.5,47.5,30.13,NNW,335,0.0,0.0,93,0.00,,,0.00,WUHU216DAVISVP2,2013-06-08 10:57:00,
2013-06-08 04:02:00,49.5,47.5,30.13,NNW,335,0.0,0.0,93,0.00,,,0.00,WUHU216DAVISVP2,2013-06-08 11:02:00,
2013-06-08 04:07:00,49.6,47.6,30.14,NNW,335,0.0,0.0,93,0.00,,,0.00,WUHU216DAVISVP2,2013-06-08 11:07:00,
2013-06-08 04:12:00,49.6,47.6,30.13,NNW,335,0.0,0.0,93,0.00,,,0.00,WUHU216DAVISVP2,2013-06-08 11:12:00,
2013-06-08 04:17:00,49.6,47.6,30.13,NNW,335,0.0,0.0,93,0.00,,,0.00,WUHU216DAVISVP2,2013-06-08 11:17:00,
2013-06-08 04:22:00,49.7,47.7,30.13,NNW,335,0.0,0.0,93,0.00,,,0.00,WUHU216DAVISVP2,2013-06-08 11:22:00,
2013-06-08 04:27:00,49.7,47.7,30.13,NNW,335,0.0,0.0,93,0.00,,,0.00,WUHU216DAVISVP2,2013-06-08 11:27:00,
2013-06-08 04:32:00,49.8,47.9,30.14,NNW,335,0.0,0.0,93,0.00,,,0.00,WUHU216DAVISVP2,2013-06-08 11:32:00,
2013-06-08 04:37:00,49.9,48.0,30.14,NNW,335,0.0,0.0,93,0.00,,,0.00,WUHU216DAVISVP2,2013-06-08 11:37:00,
2013-06-08 04:42:00,49.9,47.7,30.14,NNW,335,0.0,1.0,92,0.00,,,0.00,WUHU216DAVISVP2,2013-06-08 11:42:00,
2013-06-08 04:47:00,49.9,47.6,30.14,NNW,335,0.0,1.0,92,0.00,,,0.00,WUHU216DAVISVP2,2013-06-08 11:47:00,
2013-06-08 04:52:00,50.0,48.0,30.14,NNW,335,0.0,0.0,93,0.00,,,0.00,WUHU216DAVISVP2,2013-06-08 11:52:00,
2013-06-08 04:57:00,50.0,47.7,30.14,NNW,335,0.0,0.0,92,0.00,,,0.00,WUHU216DAVISVP2,2013-06-08 11:57:00,
2013-06-08 05:02:00,50.0,47.7,30.13,NNW,335,0.0,0.0,92,0.00,,,0.00,WUHU216DAVISVP2,2013-06-08 12:02:00,
2013-06-08 05:07:00,49.9,47.6,30.14,NNW,335,0.0,0.0,92,0.00,,,0.00,WUHU216DAVISVP2,2013-06-08 12:07:00,
2013-06-08 05:12:00,49.9,47.9,30.14,NNW,335,0.0,0.0,93,0.00,,,0.00,WUHU216DAVISVP2,2013-06-08 12:12:00,
2013-06-08 05:17:00,50.0,48.0,30.14,NNW,335,0.0,0.0,93,0.00,,,0.00,WUHU216DAVISVP2,2013-06-08 12:17:00,
2013-06-08 05:22:00,50.0,48.1,30.15,NNW,335,0.0,0.0,93,0.00,,,0.00,WUHU216DAVISVP2,2013-06-08 12:22:00,
2013-06-08 05:27:00,50.1,48.2,30.15,NNW,335,0.0,0.0,93,0.00,,,0.00,WUHU216DAVISVP2,2013-06-08 12:27:00,
2013-06-08 05:32:00,50.2,48.0,30.15,NW,321,0.0,2.0,92,0.00,,,0.00,WUHU216DAVISVP2,2013-06-08 12:32:00,
2013-06-08 05:37:00,50.2,48.0,30.15,NW,321,0.0,2.0,92,0.00,,,0.00,WUHU216DAVISVP2,2013-06-08 12:37:00,
2013-06-08 05:42:00,50.1,47.9,30.15,NW,321,0.0,0.0,92,0.00,,,0.00,WUHU216DAVISVP2,2013-06-08 12:42:00,
2013-06-08 05:47:00,50.0,48.0,30.15,NW,321,0.0,0.0,93,0.00,,,0.00,WUHU216DAVISVP2,2013-06-08 12:47:00,
2013-06-08 05:52:00,50.0,48.0,30.16,NW,321,0.0,1.0,93,0.00,,,0.00,WUHU216DAVISVP2,2013-06-08 12:52:00,
2013-06-08 05:57:00,49.9,47.9,30.16,NW,321,0.0,1.0,93,0.00,,,0.00,WUHU216DAVISVP2,2013-06-08 12:57:00,
2013-06-08 06:02:00,49.9,47.9,30.16,NW,321,0.0,0.0,93,0.00,,,0.00,WUHU216DAVISVP2,2013-06-08 13:02:00,
2013-06-08 06:07:00,49.9,47.9,30.16,NW,321,0.0,0.0,93,0.00,,,0.00,WUHU216DAVISVP2,2013-06-08 13:07:00,
2013-06-08 06:12:00,49.8,47.8,30.16,NW,321,0.0,0.0,93,0.00,,,0.00,WUHU216DAVISVP2,2013-06-08 13:12:00,
2013-06-08 06:17:00,49.7,47.4,30.16,NW,323,0.0,2.0,92,0.00,,,0.00,WUHU216DAVISVP2,2013-06-08 13:17:00,
2013-06-08 06:22:00,49.7,47.4,30.16,NNW,335,1.0,3.0,92,0.00,,,0.00,WUHU216DAVISVP2,2013-06-08 13:22:00,
2013-06-08 06:27:00,49.6,47.3,30.16,North,355,0.0,3.0,92,0.00,,,0.00,WUHU216DAVISVP2,2013-06-08 13:27:00,
2013-06-08 06:32:00,49.6,47.4,30.16,North,355,0.0,2.0,92,0.00,,,0.00,WUHU216DAVISVP2,2013-06-08 13:32:00,
2013-06-08 06:37:00,49.6,47.4,30.16,North,355,0.0,2.0,92,0.00,,,0.00,WUHU216DAVISVP2,2013-06-08 13:37:00,
2013-06-08 06:42:00,49.6,47.4,30.16,North,355,0.0,1.0,92,0.00,,,0.00,WUHU216DAVISVP2,2013-06-08 13:42:00,
2013-06-08 06:47:00,49.6,47.4,30.16,North,355,0.0,1.0,92,0.00,,,0.00,WUHU216DAVISVP2,2013-06-08 13:47:00,
2013-06-08 06:52:00,49.6,47.3,30.15,North,355,0.0,0.0,92,0.00,,,0.00,WUHU216DAVISVP2,2013-06-08 13:52:00,
2013-06-08 06:57:00,49.6,47.3,30.15,North,355,0.0,0.0,92,0.00,,,0.00,WUHU216DAVISVP2,2013-06-08 13:57:00,
2013-06-08 07:02:00,49.6,47.3,30.15,North,355,0.0,0.0,92,0.00,,,0.00,WUHU216DAVISVP2,2013-06-08 14:02:00,
2013-06-08 07:07:00,49.7,47.7,30.15,North,355,0.0,0.0,93,0.00,,,0.00,WUHU216DAVISVP2,2013-06-08 14:07:00,
2013-06-08 07:12:00,49.9,47.9,30.15,North,355,0.0,0.0,93,0.00,,,0.00,WUHU216DAVISVP2,2013-06-08 14:12:00,
2013-06-08 07:17:00,50.0,47.7,30.14,North,355,0.0,0.0,92,0.00,,,0.00,WUHU216DAVISVP2,2013-06-08 14:17:00,
2013-06-08 07:22:00,50.1,47.8,30.14,North,355,0.0,0.0,92,0.00,,,0.00,WUHU216DAVISVP2,2013-06-08 14:22:00,
2013-06-08 07:27:00,50.2,47.9,30.14,North,355,0.0,0.0,92,0.00,,,0.00,WUHU216DAVISVP2,2013-06-08 14:27:00,
2013-06-08 07:32:00,50.3,47.7,30.15,North,355,0.0,1.0,91,0.00,,,0.00,WUHU216DAVISVP2,2013-06-08 14:32:00,
2013-06-08 07:37:00,50.4,48.1,30.15,North,355,2.0,2.0,92,0.00,,,0.00,WUHU216DAVISVP2,2013-06-08 14:37:00,
2013-06-08 07:42:00,50.6,48.0,30.14,North,355,0.0,2.0,91,0.00,,,0.00,WUHU216DAVISVP2,2013-06-08 14:42:00,
2013-06-08 07:47:00,50.6,48.0,30.14,North,355,0.0,1.0,91,0.00,,,0.00,WUHU216DAVISVP2,2013-06-08 14:47:00,
2013-06-08 07:52:00,50.8,48.2,30.14,North,10,0.0,2.0,91,0.00,,,0.00,WUHU216DAVISVP2,2013-06-08 14:52:00,
2013-06-08 07:57:00,50.9,48.3,30.13,NE,36,0.0,2.0,91,0.00,,,0.00,WUHU216DAVISVP2,2013-06-08 14:57:00,
2013-06-08 08:02:00,51.0,48.1,30.14,North,5,0.0,2.0,90,0.00,,,0.00,WUHU216DAVISVP2,2013-06-08 15:02:00,
2013-06-08 08:07:00,51.1,48.5,30.14,NE,53,0.0,2.0,91,0.00,,,0.00,WUHU216DAVISVP2,2013-06-08 15:07:00,
2013-06-08 08:12:00,51.4,48.8,30.14,NNE,19,0.0,2.0,91,0.00,,,0.00,WUHU216DAVISVP2,2013-06-08 15:12:00,
2013-06-08 08:17:00,51.6,48.7,30.14,North,355,1.0,2.0,90,0.00,,,0.00,WUHU216DAVISVP2,2013-06-08 15:17:00,
2013-06-08 08:22:00,51.7,48.8,30.14,North,355,0.0,2.0,90,0.00,,,0.00,WUHU216DAVISVP2,2013-06-08 15:22:00,
2013-06-08 08:27:00,51.9,49.0,30.14,North,5,0.0,3.0,90,0.00,,,0.00,WUHU216DAVISVP2,2013-06-08 15:27:00,
2013-06-08 08:32:00,52.1,49.2,30.14,North,5,0.0,3.0,90,0.00,,,0.00,WUHU216DAVISVP2,2013-06-08 15:32:00,
2013-06-08 08:37:00,52.3,49.4,30.14,North,355,0.0,1.0,90,0.00,,,0.00,WUHU216DAVISVP2,2013-06-08 15:37:00,
2013-06-08 08:42:00,52.5,49.3,30.14,NNW,342,0.0,3.0,89,0.00,,,0.00,WUHU216DAVISVP2,2013-06-08 15:42:00,
2013-06-08 08:47:00,52.7,49.5,30.14,NNW,346,0.0,3.0,89,0.00,,,0.00,WUHU216DAVISVP2,2013-06-08 15:47:00,
2013-06-08 08:52:00,52.7,49.2,30.14,North,355,0.0,3.0,88,0.00,,,0.00,WUHU216DAVISVP2,2013-06-08 15:52:00,
2013-06-08 08:57:00,52.7,49.2,30.14,North,355,1.0,2.0,88,0.00,,,0.00,WUHU216DAVISVP2,2013-06-08 15:57:00,
2013-06-08 09:02:00,52.8,49.6,30.14,North,355,1.0,2.0,89,0.00,,,0.00,WUHU216DAVISVP2,2013-06-08 16:02:00,
2013-06-08 09:07:00,53.1,49.9,30.14,SW,232,0.0,1.0,89,0.00,,,0.00,WUHU216DAVISVP2,2013-06-08 16:07:00,
2013-06-08 09:12:00,53.2,49.7,30.15,West,269,1.0,1.0,88,0.00,,,0.00,WUHU216DAVISVP2,2013-06-08 16:12:00,
2013-06-08 09:17:00,53.3,49.8,30.14,SW,229,0.0,1.0,88,0.00,,,0.00,WUHU216DAVISVP2,2013-06-08 16:17:00,
2013-06-08 09:22:00,53.4,49.9,30.15,SW,229,0.0,1.0,88,0.00,,,0.00,WUHU216DAVISVP2,2013-06-08 16:22:00,
2013-06-08 09:27:00,53.4,49.6,30.14,WSW,247,0.0,1.0,87,0.00,,,0.00,WUHU216DAVISVP2,2013-06-08 16:27:00,
2013-06-08 09:32:00,53.4,49.6,30.15,WSW,254,0.0,1.0,87,0.00,,,0.00,WUHU216DAVISVP2,2013-06-08 16:32:00,
2013-06-08 09:37:00,53.5,50.0,30.14,WSW,248,1.0,1.0,88,0.00,,,0.00,WUHU216DAVISVP2,2013-06-08 16:37:00,
2013-06-08 09:42:00,53.5,49.4,30.14,NNW,340,0.0,2.0,86,0.00,,,0.00,WUHU216DAVISVP2,2013-06-08 16:42:00,
2013-06-08 09:47:00,53.7,49.9,30.14,NNW,340,0.0,2.0,87,0.00,,,0.00,WUHU216DAVISVP2,2013-06-08 16:47:00,
2013-06-08 09:52:00,54.1,50.0,30.14,SW,223,2.0,2.0,86,0.00,,,0.00,WUHU216DAVISVP2,2013-06-08 16:52:00,
2013-06-08 09:57:00,53.9,49.5,30.14,SW,221,0.0,3.0,85,0.00,,,0.00,WUHU216DAVISVP2,2013-06-08 16:57:00,
2013-06-08 10:02:00,54.1,50.3,30.14,SW,236,0.0,3.0,87,0.00,,,0.00,WUHU216DAVISVP2,2013-06-08 17:02:00,
2013-06-08 10:07:00,54.4,50.3,30.14,NW,320,2.0,3.0,86,0.00,,,0.00,WUHU216DAVISVP2,2013-06-08 17:07:00,
2013-06-08 10:12:00,54.5,50.1,30.14,North,351,3.0,3.0,85,0.00,,,0.00,WUHU216DAVISVP2,2013-06-08 17:12:00,
2013-06-08 10:17:00,54.7,50.3,30.13,NNE,15,1.0,3.0,85,0.00,,,0.00,WUHU216DAVISVP2,2013-06-08 17:17:00,
2013-06-08 10:22:00,55.3,50.5,30.13,NNE,23,0.0,3.0,84,0.00,,,0.00,WUHU216DAVISVP2,2013-06-08 17:22:00,
2013-06-08 10:27:00,55.7,50.6,30.13,North,5,3.0,3.0,83,0.00,,,0.00,WUHU216DAVISVP2,2013-06-08 17:27:00,
2013-06-08 10:32:00,56.1,50.7,30.13,NNW,346,3.0,3.0,82,0.00,,,0.00,WUHU216DAVISVP2,2013-06-08 17:32:00,
2013-06-08 10:37:00,56.1,50.7,30.13,ENE,63,0.0,3.0,82,0.00,,,0.00,WUHU216DAVISVP2,2013-06-08 17:37:00,
2013-06-08 10:42:00,56.6,51.5,30.13,NNW,340,1.0,3.0,83,0.00,,,0.00,WUHU216DAVISVP2,2013-06-08 17:42:00,
2013-06-08 10:47:00,57.5,51.4,30.14,West,276,1.0,3.0,80,0.00,,,0.00,WUHU216DAVISVP2,2013-06-08 17:47:00,
2013-06-08 10:52:00,57.9,51.8,30.14,WSW,238,1.0,5.0,80,0.00,,,0.00,WUHU216DAVISVP2,2013-06-08 17:52:00,
2013-06-08 10:57:00,58.1,51.7,30.14,North,9,1.0,5.0,79,0.00,,,0.00,WUHU216DAVISVP2,2013-06-08 17:57:00,
2013-06-08 11:02:00,58.9,52.1,30.14,NW,325,3.0,5.0,78,0.00,,,0.00,WUHU216DAVISVP2,2013-06-08 18:02:00,
2013-06-08 11:07:00,59.4,51.9,30.14,NNW,336,2.0,4.0,76,0.00,,,0.00,WUHU216DAVISVP2,2013-06-08 18:07:00,
2013-06-08 11:12:00,59.5,52.4,30.13,SSE,149,1.0,4.0,77,0.00,,,0.00,WUHU216DAVISVP2,2013-06-08 18:12:00,
2013-06-08 11:17:00,60.2,52.7,30.13,NNE,27,1.0,2.0,76,0.00,,,0.00,WUHU216DAVISVP2,2013-06-08 18:17:00,
2013-06-08 11:22:00,60.4,52.5,30.13,NW,321,0.0,3.0,75,0.00,,,0.00,WUHU216DAVISVP2,2013-06-08 18:22:00,
2013-06-08 11:27:00,60.6,52.4,30.13,West,266,0.0,3.0,74,0.00,,,0.00,WUHU216DAVISVP2,2013-06-08 18:27:00,
2013-06-08 11:32:00,60.7,52.1,30.13,North,355,2.0,2.0,73,0.00,,,0.00,WUHU216DAVISVP2,2013-06-08 18:32:00,
2013-06-08 11:37:00,60.9,51.6,30.13,SE,126,1.0,3.0,71,0.00,,,0.00,WUHU216DAVISVP2,2013-06-08 18:37:00,
2013-06-08 11:42:00,61.0,52.0,30.13,WSW,250,1.0,4.0,72,0.00,,,0.00,WUHU216DAVISVP2,2013-06-08 18:42:00,
2013-06-08 11:47:00,61.0,51.7,30.13,SW,215,2.0,4.0,71,0.00,,,0.00,WUHU216DAVISVP2,2013-06-08 18:47:00,
2013-06-08 11:52:00,61.2,52.2,30.13,North,11,3.0,5.0,72,0.00,,,0.00,WUHU216DAVISVP2,2013-06-08 18:52:00,
2013-06-08 11:57:00,61.4,52.4,30.13,NNE,24,0.0,5.0,72,0.00,,,0.00,WUHU216DAVISVP2,2013-06-08 18:57:00,
2013-06-08 12:02:00,61.9,52.2,30.13,SW,235,0.0,4.0,70,0.00,,,0.00,WUHU216DAVISVP2,2013-06-08 19:02:00,
2013-06-08 12:07:00,62.5,52.7,30.13,ENE,59,0.0,2.0,70,0.00,,,0.00,WUHU216DAVISVP2,2013-06-08 19:07:00,
2013-06-08 12:12:00,62.9,52.7,30.13,WSW,241,0.0,4.0,69,0.00,,,0.00,WUHU216DAVISVP2,2013-06-08 19:12:00,
2013-06-08 12:17:00,62.9,51.8,30.13,WSW,251,1.0,4.0,67,0.00,,,0.00,WUHU216DAVISVP2,2013-06-08 19:17:00,
2013-06-08 12:22:00,63.1,53.3,30.13,NE,38,5.0,6.0,70,0.00,,,0.00,WUHU216DAVISVP2,2013-06-08 19:22:00,
2013-06-08 12:27:00,63.2,51.6,30.13,NNE,32,1.0,6.0,66,0.00,,,0.00,WUHU216DAVISVP2,2013-06-08 19:27:00,
2013-06-08 12:32:00,63.2,52.2,30.12,NNE,24,1.0,4.0,67,0.00,,,0.00,WUHU216DAVISVP2,2013-06-08 19:32:00,
2013-06-08 12:37:00,63.7,52.5,30.13,NNE,32,0.0,4.0,67,0.00,,,0.00,WUHU216DAVISVP2,2013-06-08 19:37:00,
2013-06-08 12:42:00,64.2,52.8,30.13,NE,44,4.0,8.0,66,0.00,,,0.00,WUHU216DAVISVP2,2013-06-08 19:42:00,
2013-06-08 12:47:00,64.1,52.5,30.12,NNW,335,2.0,8.0,66,0.00,,,0.00,WUHU216DAVISVP2,2013-06-08 19:47:00,
2013-06-08 12:52:00,64.4,51.7,30.12,NNW,340,4.0,9.0,63,0.00,,,0.00,WUHU216DAVISVP2,2013-06-08 19:52:00,
2013-06-08 12:57:00,64.4,51.7,30.12,NNE,27,1.0,9.0,63,0.00,,,0.00,WUHU216DAVISVP2,2013-06-08 19:57:00,
2013-06-08 13:02:00,64.5,50.9,30.12,SSE,161,0.0,4.0,61,0.00,,,0.00,WUHU216DAVISVP2,2013-06-08 20:02:00,
2013-06-08 13:07:00,64.5,52.2,30.12,East,86,3.0,8.0,64,0.00,,,0.00,WUHU216DAVISVP2,2013-06-08 20:07:00,
2013-06-08 13:12:00,64.4,51.3,30.11,NW,321,2.0,8.0,62,0.00,,,0.00,WUHU216DAVISVP2,2013-06-08 20:12:00,
2013-06-08 13:17:00,64.4,51.7,30.11,ENE,75,1.0,5.0,63,0.00,,,0.00,WUHU216DAVISVP2,2013-06-08 20:17:00,
2013-06-08 13:22:00,65.3,51.7,30.11,NNE,31,3.0,4.0,61,0.00,,,0.00,WUHU216DAVISVP2,2013-06-08 20:22:00,
2013-06-08 13:27:00,65.3,51.2,30.12,NNE,32,1.0,5.0,60,0.00,,,0.00,WUHU216DAVISVP2,2013-06-08 20:27:00,
2013-06-08 13:32:00,65.5,50.5,30.12,North,360,2.0,5.0,58,0.00,,,0.00,WUHU216DAVISVP2,2013-06-08 20:32:00,
2013-06-08 13:37:00,65.5,51.9,30.11,NNW,329,2.0,5.0,61,0.00,,,0.00,WUHU216DAVISVP2,2013-06-08 20:37:00,
2013-06-08 13:42:00,65.8,50.3,30.11,SSW,199,1.0,5.0,57,0.00,,,0.00,WUHU216DAVISVP2,2013-06-08 20:42:00,
2013-06-08 13:47:00,66.0,52.8,30.11,NNW,329,3.0,5.0,62,0.00,,,0.00,WUHU216DAVISVP2,2013-06-08 20:47:00,
2013-06-08 13:52:00,66.4,51.3,30.11,ESE,108,0.0,5.0,58,0.00,,,0.00,WUHU216DAVISVP2,2013-06-08 20:52:00,
2013-06-08 13:57:00,66.9,51.3,30.11,NW,324,2.0,5.0,57,0.00,,,0.00,WUHU216DAVISVP2,2013-06-08 20:57:00,
2013-06-08 14:02:00,67.1,51.0,30.12,NNE,17,3.0,10.0,56,0.00,,,0.00,WUHU216DAVISVP2,2013-06-08 21:02:00,
2013-06-08 14:07:00,67.0,51.7,30.11,NNW,331,7.0,10.0,58,0.00,,,0.00,WUHU216DAVISVP2,2013-06-08 21:07:00,
2013-06-08 14:12:00,66.9,52.3,30.11,NW,315,2.0,9.0,59,0.00,,,0.00,WUHU216DAVISVP2,2013-06-08 21:12:00,
2013-06-08 14:17:00,67.1,50.9,30.11,NW,317,2.0,5.0,56,0.00,,,0.00,WUHU216DAVISVP2,2013-06-08 21:17:00,
2013-06-08 14:22:00,67.2,50.6,30.11,NNE,29,1.0,5.0,55,0.00,,,0.00,WUHU216DAVISVP2,2013-06-08 21:22:00,
2013-06-08 14:27:00,67.3,51.2,30.11,North,5,6.0,6.0,56,0.00,,,0.00,WUHU216DAVISVP2,2013-06-08 21:27:00,
2013-06-08 14:32:00,67.2,52.1,30.10,NW,317,1.0,8.0,58,0.00,,,0.00,WUHU216DAVISVP2,2013-06-08 21:32:00,
2013-06-08 14:37:00,67.4,51.3,30.10,WNW,303,1.0,8.0,56,0.00,,,0.00,WUHU216DAVISVP2,2013-06-08 21:37:00,
2013-06-08 14:42:00,67.6,51.8,30.10,NW,311,1.0,6.0,57,0.00,,,0.00,WUHU216DAVISVP2,2013-06-08 21:42:00,
2013-06-08 14:47:00,67.7,50.0,30.10,NNE,29,0.0,4.0,53,0.00,,,0.00,WUHU216DAVISVP2,2013-06-08 21:47:00,
2013-06-08 14:52:00,67.8,51.7,30.10,NE,56,4.0,9.0,56,0.00,,,0.00,WUHU216DAVISVP2,2013-06-08 21:52:00,
2013-06-08 14:57:00,67.8,51.0,30.10,NNW,344,1.0,9.0,55,0.00,,,0.00,WUHU216DAVISVP2,2013-06-08 21:57:00,
2013-06-08 15:02:00,67.9,50.7,30.10,NNW,341,5.0,11.0,54,0.00,,,0.00,WUHU216DAVISVP2,2013-06-08 22:02:00,
2013-06-08 15:07:00,67.3,51.2,30.10,NNE,14,2.0,11.0,56,0.00,,,0.00,WUHU216DAVISVP2,2013-06-08 22:07:00,
2013-06-08 15:12:00,67.4,51.8,30.10,NW,304,2.0,6.0,57,0.00,,,0.00,WUHU216DAVISVP2,2013-06-08 22:12:00,
2013-06-08 15:17:00,67.6,52.4,30.10,WSW,238,2.0,7.0,58,0.00,,,0.00,WUHU216DAVISVP2,2013-06-08 22:17:00,
2013-06-08 15:22:00,67.6,52.4,30.10,NNE,17,2.0,7.0,58,0.00,,,0.00,WUHU216DAVISVP2,2013-06-08 22:22:00,
2013-06-08 15:27:00,67.6,52.4,30.10,North,9,5.0,6.0,58,0.00,,,0.00,WUHU216DAVISVP2,2013-06-08 22:27:00,
2013-06-08 15:32:00,68.0,52.8,30.10,NE,38,0.0,5.0,58,0.00,,,0.00,WUHU216DAVISVP2,2013-06-08 22:32:00,
2013-06-08 15:37:00,68.4,52.2,30.10,NNW,338,1.0,4.0,56,0.00,,,0.00,WUHU216DAVISVP2,2013-06-08 22:37:00,
2013-06-08 15:42:00,68.6,53.9,30.09,SW,214,3.0,4.0,59,0.00,,,0.00,WUHU216DAVISVP2,2013-06-08 22:42:00,
2013-06-08 15:47:00,68.5,53.3,30.10,North,355,0.0,5.0,58,0.00,,,0.00,WUHU216DAVISVP2,2013-06-08 22:47:00,
2013-06-08 15:52:00,68.3,52.1,30.10,NNW,329,2.0,5.0,56,0.00,,,0.00,WUHU216DAVISVP2,2013-06-08 22:52:00,
2013-06-08 15:57:00,68.1,50.8,30.10,North,355,3.0,6.0,54,0.00,,,0.00,WUHU216DAVISVP2,2013-06-08 22:57:00,
2013-06-08 16:02:00,68.1,50.4,30.09,WSW,254,1.0,6.0,53,0.00,,,0.00,WUHU216DAVISVP2,2013-06-08 23:02:00,
2013-06-08 16:07:00,68.6,50.4,30.09,North,5,2.0,5.0,52,0.00,,,0.00,WUHU216DAVISVP2,2013-06-08 23:07:00,
2013-06-08 16:12:00,68.9,51.7,30.09,North,351,0.0,5.0,54,0.00,,,0.00,WUHU216DAVISVP2,2013-06-08 23:12:00,
2013-06-08 16:18:00,69.1,52.2,30.09,NW,326,1.0,7.0,55,0.00,,,0.00,WUHU216DAVISVP2,2013-06-08 23:18:00,
2013-06-08 16:22:00,69.3,50.9,30.09,North,355,3.0,7.0,52,0.00,,,0.00,WUHU216DAVISVP2,2013-06-08 23:22:00,
2013-06-08 16:28:00,69.2,51.4,30.08,NNE,15,1.0,6.0,53,0.00,,,0.00,WUHU216DAVISVP2,2013-06-08 23:28:00,
2013-06-08 16:33:00,69.2,51.4,30.09,East,86,2.0,6.0,53,0.00,,,0.00,WUHU216DAVISVP2,2013-06-08 23:33:00,
2013-06-08 16:38:00,69.5,51.2,30.09,NNE,30,1.0,5.0,52,0.00,,,0.00,WUHU216DAVISVP2,2013-06-08 23:38:00,
2013-06-08 16:43:00,69.3,52.4,30.09,NNW,340,2.0,6.0,55,0.00,,,0.00,WUHU216DAVISVP2,2013-06-08 23:43:00,
2013-06-08 16:48:00,69.2,51.8,30.09,NW,314,0.0,6.0,54,0.00,,,0.00,WUHU216DAVISVP2,2013-06-08 23:48:00,
2013-06-08 16:53:00,69.4,52.1,30.09,NNW,344,1.0,7.0,54,0.00,,,0.00,WUHU216DAVISVP2,2013-06-08 23:53:00,
2013-06-08 16:58:00,69.0,52.8,30.09,NNE,32,5.0,9.0,56,0.00,,,0.00,WUHU216DAVISVP2,2013-06-08 23:58:00,
2013-06-08 17:03:00,69.0,53.3,30.09,North,360,3.0,9.0,57,0.00,,,0.00,WUHU216DAVISVP2,2013-06-09 00:03:00,
2013-06-08 17:08:00,68.6,52.4,30.09,North,5,1.0,10.0,56,0.00,,,0.00,WUHU216DAVISVP2,2013-06-09 00:08:00,
2013-06-08 17:13:00,68.4,52.7,30.09,NNW,346,2.0,10.0,57,0.00,,,0.00,WUHU216DAVISVP2,2013-06-09 00:13:00,
2013-06-08 17:18:00,68.5,52.3,30.08,North,5,1.0,5.0,56,0.00,,,0.00,WUHU216DAVISVP2,2013-06-09 00:18:00,
2013-06-08 17:23:00,68.3,52.1,30.08,NNE,31,6.0,9.0,56,0.00,,,0.00,WUHU216DAVISVP2,2013-06-09 00:23:00,
2013-06-08 17:28:00,68.0,52.2,30.08,NNE,27,2.0,9.0,57,0.00,,,0.00,WUHU216DAVISVP2,2013-06-09 00:28:00,
2013-06-08 17:33:00,68.0,51.2,30.09,NNW,348,2.0,6.0,55,0.00,,,0.00,WUHU216DAVISVP2,2013-06-09 00:33:00,
2013-06-08 17:38:00,67.9,52.2,30.08,North,355,1.0,6.0,57,0.00,,,0.00,WUHU216DAVISVP2,2013-06-09 00:38:00,
2013-06-08 17:43:00,67.9,52.2,30.08,NNW,333,2.0,9.0,57,0.00,,,0.00,WUHU216DAVISVP2,2013-06-09 00:43:00,
2013-06-08 17:48:00,68.2,52.0,30.08,NNE,16,2.0,9.0,56,0.00,,,0.00,WUHU216DAVISVP2,2013-06-09 00:48:00,
2013-06-08 17:53:00,68.4,52.2,30.08,NE,38,3.0,10.0,56,0.00,,,0.00,WUHU216DAVISVP2,2013-06-09 00:53:00,
2013-06-08 17:58:00,68.3,51.6,30.08,NNE,31,0.0,10.0,55,0.00,,,0.00,WUHU216DAVISVP2,2013-06-09 00:58:00,
2013-06-08 18:04:00,68.1,51.8,30.07,NNW,338,2.0,6.0,56,0.00,,,0.00,WUHU216DAVISVP2,2013-06-09 01:04:00,
2013-06-08 18:09:00,67.9,51.8,30.07,NW,313,1.0,6.0,56,0.00,,,0.00,WUHU216DAVISVP2,2013-06-09 01:09:00,
2013-06-08 18:14:00,68.0,51.8,30.07,North,355,2.0,7.0,56,0.00,,,0.00,WUHU216DAVISVP2,2013-06-09 01:14:00,
2013-06-08 18:19:00,67.8,52.2,30.07,NNE,16,2.0,7.0,57,0.00,,,0.00,WUHU216DAVISVP2,2013-06-09 01:19:00,
2013-06-08 18:24:00,67.7,51.1,30.07,NNW,341,2.0,6.0,55,0.00,,,0.00,WUHU216DAVISVP2,2013-06-09 01:24:00,
2013-06-08 18:29:00,67.8,51.2,30.07,NNW,340,7.0,7.0,55,0.00,,,0.00,WUHU216DAVISVP2,2013-06-09 01:29:00,
2013-06-08 18:34:00,67.8,51.7,30.07,NE,36,4.0,7.0,56,0.00,,,0.00,WUHU216DAVISVP2,2013-06-09 01:34:00,
2013-06-08 18:39:00,68.0,51.8,30.07,NNW,346,4.0,4.0,56,0.00,,,0.00,WUHU216DAVISVP2,2013-06-09 01:39:00,
2013-06-08 18:44:00,67.8,51.2,30.07,North,5,5.0,5.0,55,0.00,,,0.00,WUHU216DAVISVP2,2013-06-09 01:44:00,
2013-06-08 18:49:00,67.7,50.0,30.07,North,349,1.0,5.0,53,0.00,,,0.00,WUHU216DAVISVP2,2013-06-09 01:49:00,
2013-06-08 18:54:00,67.5,50.4,30.07,NNW,340,3.0,5.0,54,0.00,,,0.00,WUHU216DAVISVP2,2013-06-09 01:54:00,
2013-06-08 18:59:00,67.2,51.6,30.07,NNW,327,8.0,9.0,57,0.00,,,0.00,WUHU216DAVISVP2,2013-06-09 01:59:00,
2013-06-08 19:04:00,67.0,52.4,30.07,NNE,22,1.0,9.0,59,0.00,,,0.00,WUHU216DAVISVP2,2013-06-09 02:04:00,
2013-06-08 19:09:00,67.2,52.5,30.07,NE,50,0.0,4.0,59,0.00,,,0.00,WUHU216DAVISVP2,2013-06-09 02:09:00,
2013-06-08 19:14:00,67.3,52.6,30.07,NE,51,1.0,3.0,59,0.00,,,0.00,WUHU216DAVISVP2,2013-06-09 02:14:00,
2013-06-08 19:19:00,67.3,52.0,30.06,North,355,0.0,2.0,58,0.00,,,0.00,WUHU216DAVISVP2,2013-06-09 02:19:00,
2013-06-08 19:24:00,67.0,51.7,30.06,North,350,3.0,5.0,58,0.00,,,0.00,WUHU216DAVISVP2,2013-06-09 02:24:00,
2013-06-08 19:29:00,66.5,52.2,30.06,NNW,338,2.0,5.0,60,0.00,,,0.00,WUHU216DAVISVP2,2013-06-09 02:29:00,
2013-06-08 19:34:00,66.3,52.2,30.06,NNE,19,0.0,4.0,60,0.00,,,0.00,WUHU216DAVISVP2,2013-06-09 02:34:00,
2013-06-08 19:39:00,66.1,52.0,30.06,North,5,0.0,4.0,60,0.00,,,0.00,WUHU216DAVISVP2,2013-06-09 02:39:00,
2013-06-08 19:44:00,65.9,52.2,30.06,NW,321,0.0,3.0,61,0.00,,,0.00,WUHU216DAVISVP2,2013-06-09 02:44:00,
2013-06-08 19:49:00,65.7,52.0,30.06,North,355,1.0,4.0,61,0.00,,,0.00,WUHU216DAVISVP2,2013-06-09 02:49:00,
2013-06-08 19:54:00,65.5,52.3,30.06,North,5,0.0,4.0,62,0.00,,,0.00,WUHU216DAVISVP2,2013-06-09 02:54:00,
2013-06-08 19:59:00,65.3,52.1,30.06,North,5,0.0,0.0,62,0.00,,,0.00,WUHU216DAVISVP2,2013-06-09 02:59:00,
2013-06-08 20:04:00,65.2,52.5,30.06,North,5,0.0,0.0,63,0.00,,,0.00,WUHU216DAVISVP2,2013-06-09 03:04:00,
2013-06-08 20:09:00,65.0,51.8,30.06,NNE,18,0.0,0.0,62,0.00,,,0.00,WUHU216DAVISVP2,2013-06-09 03:09:00,
2013-06-08 20:14:00,64.8,51.9,30.06,North,5,0.0,2.0,63,0.00,,,0.00,WUHU216DAVISVP2,2013-06-09 03:14:00,
2013-06-08 20:19:00,64.6,52.3,30.06,North,5,0.0,2.0,64,0.00,,,0.00,WUHU216DAVISVP2,2013-06-09 03:19:00,
2013-06-08 20:24:00,64.3,52.4,30.06,NNE,20,0.0,5.0,65,0.00,,,0.00,WUHU216DAVISVP2,2013-06-09 03:24:00,
2013-06-08 20:29:00,63.9,51.6,30.06,North,5,0.0,5.0,64,0.00,,,0.00,WUHU216DAVISVP2,2013-06-09 03:29:00,
2013-06-08 20:34:00,63.6,51.6,30.06,NE,36,0.0,5.0,65,0.00,,,0.00,WUHU216DAVISVP2,2013-06-09 03:34:00,
2013-06-08 20:39:00,63.4,51.6,30.06,North,360,0.0,5.0,65,0.00,,,0.00,WUHU216DAVISVP2,2013-06-09 03:39:00,
2013-06-08 20:44:00,63.2,51.8,30.06,NNE,33,0.0,5.0,66,0.00,,,0.00,WUHU216DAVISVP2,2013-06-09 03:44:00,
2013-06-08 20:49:00,63.0,52.0,30.06,NW,325,3.0,3.0,67,0.00,,,0.00,WUHU216DAVISVP2,2013-06-09 03:49:00,
2013-06-08 20:54:00,62.8,52.1,30.06,North,11,0.0,3.0,68,0.00,,,0.00,WUHU216DAVISVP2,2013-06-09 03:54:00,
2013-06-08 20:59:00,62.7,52.1,30.06,North,5,0.0,2.0,68,0.00,,,0.00,WUHU216DAVISVP2,2013-06-09 03:59:00,
2013-06-08 21:01:00,62.6,52.0,30.06,North,5,1.0,2.0,68,0.00,,,0.00,WUHU216DAVISVP2,2013-06-09 04:01:00,
2013-06-08 21:06:00,62.7,49.2,30.06,NNW,329,2.0,5.0,61,0.00,,,0.00,WUHU216DAVISVP2,2013-06-09 04:06:00,
2013-06-08 21:11:00,62.6,49.5,30.06,NNW,329,1.0,5.0,62,0.00,,,0.00,WUHU216DAVISVP2,2013-06-09 04:11:00,
2013-06-08 21:16:00,62.6,49.5,30.06,NNW,329,4.0,5.0,62,0.00,,,0.00,WUHU216DAVISVP2,2013-06-09 04:16:00,
2013-06-08 21:21:00,62.4,49.8,30.07,NNW,329,2.0,5.0,63,0.00,,,0.00,WUHU216DAVISVP2,2013-06-09 04:21:00,
2013-06-08 21:26:00,62.3,50.1,30.07,NNW,329,1.0,5.0,64,0.00,,,0.00,WUHU216DAVISVP2,2013-06-09 04:26:00,
2013-06-08 21:31:00,62.3,50.1,30.07,NNW,329,0.0,5.0,64,0.00,,,0.00,WUHU216DAVISVP2,2013-06-09 04:31:00,
2013-06-08 21:36:00,62.1,49.9,30.07,NNW,329,0.0,3.0,64,0.00,,,0.00,WUHU216DAVISVP2,2013-06-09 04:36:00,
2013-06-08 21:41:00,62.1,50.3,30.07,NNW,329,0.0,1.0,65,0.00,,,0.00,WUHU216DAVISVP2,2013-06-09 04:41:00,
2013-06-08 21:47:00,62.1,50.3,30.07,NNW,329,0.0,0.0,65,0.00,,,0.00,WUHU216DAVISVP2,2013-06-09 04:47:00,
2013-06-08 21:52:00,62.0,50.3,30.08,NNW,329,0.0,1.0,65,0.00,,,0.00,WUHU216DAVISVP2,2013-06-09 04:52:00,
2013-06-08 21:57:00,62.0,50.3,30.08,NNW,329,0.0,1.0,65,0.00,,,0.00,WUHU216DAVISVP2,2013-06-09 04:57:00,
2013-06-08 22:02:00,62.0,50.1,30.08,NNW,329,1.0,2.0,65,0.00,,,0.00,WUHU216DAVISVP2,2013-06-09 05:02:00,
2013-06-08 22:07:00,62.0,50.3,30.07,NNW,329,0.0,2.0,65,0.00,,,0.00,WUHU216DAVISVP2,2013-06-09 05:07:00,
2013-06-08 22:12:00,61.8,50.1,30.07,NNW,329,0.0,2.0,65,0.00,,,0.00,WUHU216DAVISVP2,2013-06-09 05:12:00,
2013-06-08 22:17:00,61.6,50.3,30.07,NNW,329,0.0,2.0,66,0.00,,,0.00,WUHU216DAVISVP2,2013-06-09 05:17:00,
2013-06-08 22:22:00,61.6,50.1,30.07,NNW,329,0.0,0.0,66,0.00,,,0.00,WUHU216DAVISVP2,2013-06-09 05:22:00,
2013-06-08 22:27:00,61.5,50.2,30.07,NNW,329,0.0,3.0,66,0.00,,,0.00,WUHU216DAVISVP2,2013-06-09 05:27:00,
2013-06-08 22:32:00,61.5,50.2,30.07,NNW,329,0.0,3.0,66,0.00,,,0.00,WUHU216DAVISVP2,2013-06-09 05:32:00,
2013-06-08 22:37:00,61.5,50.6,30.07,NNW,329,0.0,1.0,67,0.00,,,0.00,WUHU216DAVISVP2,2013-06-09 05:37:00,
2013-06-08 22:42:00,61.5,50.4,30.07,NNW,329,0.0,1.0,67,0.00,,,0.00,WUHU216DAVISVP2,2013-06-09 05:42:00,
2013-06-08 22:47:00,61.5,50.4,30.07,NNW,329,0.0,1.0,67,0.00,,,0.00,WUHU216DAVISVP2,2013-06-09 05:47:00,
2013-06-08 22:52:00,61.3,50.4,30.07,NNW,329,2.0,2.0,67,0.00,,,0.00,WUHU216DAVISVP2,2013-06-09 05:52:00,
2013-06-08 22:57:00,61.3,50.4,30.07,NNW,329,0.0,2.0,67,0.00,,,0.00,WUHU216DAVISVP2,2013-06-09 05:57:00,
2013-06-08 23:02:00,61.3,50.4,30.07,NNW,329,0.0,4.0,67,0.00,,,0.00,WUHU216DAVISVP2,2013-06-09 06:02:00,
2013-06-08 23:07:00,61.2,50.2,30.07,NNW,329,0.0,4.0,67,0.00,,,0.00,WUHU216DAVISVP2,2013-06-09 06:07:00,
2013-06-08 23:12:00,61.0,50.1,30.07,NW,322,0.0,6.0,67,0.00,,,0.00,WUHU216DAVISVP2,2013-06-09 06:12:00,
2013-06-08 23:17:00,60.9,50.4,30.07,NW,313,5.0,6.0,68,0.00,,,0.00,WUHU216DAVISVP2,2013-06-09 06:17:00,
2013-06-08 23:22:00,60.5,50.4,30.07,WNW,293,1.0,7.0,69,0.00,,,0.00,WUHU216DAVISVP2,2013-06-09 06:22:00,
2013-06-08 23:27:00,60.2,50.0,30.07,WNW,293,0.0,7.0,69,0.00,,,0.00,WUHU216DAVISVP2,2013-06-09 06:27:00,
2013-06-08 23:32:00,59.9,50.1,30.07,WNW,293,4.0,5.0,70,0.00,,,0.00,WUHU216DAVISVP2,2013-06-09 06:32:00,
2013-06-08 23:37:00,59.8,50.1,30.07,WNW,293,0.0,5.0,70,0.00,,,0.00,WUHU216DAVISVP2,2013-06-09 06:37:00,
2013-06-08 23:42:00,59.6,50.3,30.07,WNW,293,3.0,5.0,71,0.00,,,0.00,WUHU216DAVISVP2,2013-06-09 06:42:00,
2013-06-08 23:47:00,59.5,50.2,30.07,WNW,293,0.0,4.0,71,0.00,,,0.00,WUHU216DAVISVP2,2013-06-09 06:47:00,
2013-06-08 23:52:00,59.3,50.0,30.07,WNW,293,0.0,4.0,71,0.00,,,0.00,WUHU216DAVISVP2,2013-06-09 06:52:00,
2013-06-08 23:57:00,59.2,49.9,30.07,WNW,293,2.0,6.0,71,0.00,,,0.00,WUHU216DAVISVP2,2013-06-09 06:57:00,